EW1970 Weather Reports


time (UTC)temp
C
wind
direction
speed
KPH
gust
KPH
rain 1hr
cm
rain 24hr
cm
rain mn
cm
humidity
%
barometer
mb
20260901223042 36 182 0.0 4.8 0.00 0.00 0.00 43 1013.6
20260901221530 37 219 1.6 12.9 0.00 0.00 0.00 41 1013.6
20260901220014 36 169 1.6 6.4 0.00 0.00 0.00 40 1013.7
20260901214516 36 70 0.0 6.4 0.00 0.00 0.00 41 1013.7
20260901213033 37 115 0.0 6.4 0.00 0.00 0.00 40 1013.8
20260901211530 36 123 1.6 8.0 0.00 0.00 0.00 41 1013.9
20260901210038 34 53 0.0 6.4 0.00 0.00 0.00 46 1014.1
20260901204520 37 49 1.6 6.4 0.00 0.00 0.00 41 1014.3
20260901203035 37 34 1.6 8.0 0.00 0.00 0.00 38 1014.5
20260901201531 37 248 1.6 4.8 0.00 0.00 0.00 41 1014.7
20260901200043 36 114 1.6 6.4 0.00 0.00 0.00 41 1015.0
20260901194547 36 255 0.0 6.4 0.00 0.00 0.00 43 1015.2
20260901193018 37 336 0.0 4.8 0.00 0.00 0.00 41 1015.4
20260901191530 36 223 1.6 4.8 0.00 0.00 0.00 41 1015.7
20260901190032 36 351 1.6 3.2 0.00 0.00 0.00 44 1015.8
20260901184530 35 5 0.0 4.8 0.00 0.00 0.00 47 1016.1
20260901183038 36 352 1.6 6.4 0.00 0.00 0.00 46 1016.3
20260901181522 33 352 0.0 4.8 0.00 0.00 0.00 52 1016.7
20260901180032 35 315 0.0 11.3 0.00 0.00 0.00 49 1016.9
20260901174505 35 279 0.0 4.8 0.00 0.00 0.00 48 1017.1
20260901173011 34 62 3.2 8.0 0.00 0.00 0.00 49 1017.3
20260901171517 34 154 0.0 4.8 0.00 0.00 0.00 50 1017.5
20260901170101 34 165 0.0 3.2 0.00 0.00 0.00 51 1017.7
20260901164512 33 352 1.6 4.8 0.00 0.00 0.00 51 1017.6
20260901163016 33 18 0.0 6.4 0.00 0.00 0.00 56 1017.7
20260901161515 32 73 0.0 4.8 0.00 0.00 0.00 58 1017.9
20260901160032 31 247 0.0 3.2 0.00 0.00 0.00 63 1017.8
20260901154527 30 43 0.0 3.2 0.00 0.00 0.00 65 1017.8
20260901153010 29 249 0.0 3.2 0.00 0.00 0.00 68 1017.7
20260901151514 28 219 0.0 6.4 0.00 0.00 0.00 69 1017.6
20260901150021 28 307 0.0 3.2 0.00 0.00 0.00 73 1017.8
20260901144527 27 187 0.0 4.8 0.00 0.00 0.00 77 1017.8
20260901143030 27 252 1.6 3.2 0.00 0.00 0.00 80 1018.1
20260901141510 26 176 0.0 3.2 0.00 0.00 0.00 82 1018.2
20260901140021 26 334 0.0 8.0 0.00 0.00 0.00 83 1018.3
20260901134524 25 269 0.0 1.6 0.00 0.00 0.00 1018.1
20260901133026 25 325 0.0 1.6 0.00 0.00 0.00 89 1017.9
20260901131537 24 273 0.0 0.0 0.00 0.00 0.00 90 1017.9
20260901130019 23 273 0.0 0.0 0.00 0.00 0.00 90 1017.6
20260901124522 23 273 0.0 0.0 0.00 0.00 0.00 90 1017.4
20260901123037 23 273 0.0 0.0 0.00 0.00 0.00 90 1017.4
20260901121536 23 273 0.0 0.0 0.00 0.00 0.00 89 1017.1
20260901120031 23 273 0.0 0.0 0.00 0.00 0.00 89 1017.0
20260901114520 24 273 0.0 0.0 0.00 0.00 0.00 88 1017.0
20260901113027 24 273 0.0 3.2 0.00 0.00 0.00 87 1017.0
20260901111530 25 252 0.0 1.6 0.00 0.00 0.00 87 1016.9
20260901110031 25 238 1.6 3.2 0.00 0.00 0.00 87 1017.0
20260901104535 25 235 0.0 3.2 0.00 0.00 0.00 85 1016.8
20260901103025 25 281 0.0 3.2 0.00 0.00 0.00 85 1016.9
20260901101504 25 236 0.0 6.4 0.00 0.00 0.00 85 1016.7
20260901100010 25 229 0.0 6.4 0.00 0.00 0.00 84 1016.7
20260901094508 25 248 1.6 4.8 0.00 0.00 0.00 84 1016.8
20260901093004 25 271 0.0 4.8 0.00 0.00 0.00 83 1016.8
20260901091504 25 186 0.0 3.2 0.00 0.00 0.00 1017.0
20260901090010 25 244 0.0 1.6 0.00 0.00 0.00 82 1016.9
20260901084508 25 244 0.0 3.2 0.00 0.00 0.00 81 1016.8
20260901083026 25 244 0.0 1.6 0.00 0.00 0.00 80 1016.7
20260901081503 25 113 0.0 0.0 0.00 0.00 0.00 79 1016.8
20260901080005 26 112 0.0 3.2 0.00 0.00 0.00 78 1016.8
20260901074518 26 125 0.0 0.0 0.00 0.00 0.00 77 1016.9
20260901073027 26 125 0.0 4.8 0.00 0.00 0.00 75 1016.9
20260901071515 26 127 0.0 3.2 0.00 0.00 0.00 75 1017.0
20260901070009 27 203 0.0 3.2 0.00 0.00 0.00 74 1016.9
20260901064508 27 129 0.0 6.4 0.00 0.00 0.00 73 1016.7
20260901063016 27 254 0.0 3.2 0.00 0.00 0.00 72 1016.7
20260901061521 27 240 0.0 6.4 0.00 0.00 0.00 72 1016.6
20260901060019 27 242 0.0 6.4 0.00 0.00 0.00 70 1016.5
20260901054506 28 165 0.0 4.8 0.00 0.00 0.00 69 1016.5
20260901053013 28 76 0.0 4.8 0.00 0.00 0.00 67 1016.3
20260901051518 28 288 1.6 4.8 0.00 0.00 0.00 66 1016.2
20260901050024 28 254 0.0 6.4 0.00 0.00 0.00 65 1016.1
20260901044526 28 104 0.0 11.3 0.00 0.00 0.00 64 1016.0
20260901043010 29 165 0.0 12.9 0.00 0.00 0.00 63 1016.0
20260901041514 29 179 1.6 6.4 0.00 0.00 0.00 62 1015.9
20260901040028 29 215 0.0 6.4 0.00 0.00 0.00 60 1016.0
20260901034533 30 106 1.6 11.3 0.00 0.00 0.00 59 1015.9
20260901033027 30 163 1.6 11.3 0.00 0.00 0.00 58 1015.8
20260901031529 30 88 1.6 12.9 0.00 0.00 0.00 56 1015.7
20260901030023 30 145 1.6 12.9 0.00 0.00 0.00 54 1015.5
20260901024509 29 117 0.0 12.9 0.00 0.00 0.00 52 1015.1
20260901023007 29 142 0.0 3.2 0.00 0.00 0.00 50 1014.9
20260901021510 29 77 0.0 3.2 0.00 0.00 0.00 50 1014.8
20260901020018 29 167 0.0 3.2 0.00 0.00 0.00 51 1014.4
20260901014503 30 132 0.0 3.2 0.00 0.00 0.00 50 1014.3
20260901013005 30 132 0.0 3.2 0.00 0.00 0.00 48 1014.2
20260901011507 30 40 0.0 3.2 0.00 0.00 0.00 47 1014.1
20260901010029 31 94 0.0 3.2 0.00 0.00 0.00 46 1014.0
20260901004526 32 140 0.0 4.8 0.00 0.00 0.00 44 1014.1
20260901003003 32 134 0.0 6.4 0.00 0.00 0.00 42 1014.1
20260901001513 33 153 0.0 3.2 0.00 0.00 0.00 42 1013.9
20260901000015 33 37 1.6 8.0 0.00 0.00 0.00 41 1013.9
20260831234517 34 139 0.0 4.8 0.00 0.00 0.00 40 1013.9
20260831233027 35 20 0.0 6.4 0.00 0.00 0.00 39 1014.0
20260831231504 36 55 0.0 6.4 0.00 0.00 0.00 36 1014.0
20260831230012 36 36 0.0 6.4 0.00 0.00 0.00 37 1014.0
20260831224514 36 108 1.6 6.4 0.00 0.00 0.00 35 1014.0